Regional Weather Roundup
Issued by NWS Wakefield, VA

Home | Current Version | Previous Version | Text Only | Print | Product List | Glossary Off
Versions: 1 2 3 4 5 6 7 8 9 10 11 12 13 14 15 16 17 18 19 20 21 22 23 24 25 26 27 28 29 30 31 32 33 34 35 36

000
ASUS41 KAKQ 230710
RWRAKQ

REGIONAL WEATHER ROUNDUP
NATIONAL WEATHER SERVICE WAKEFIELD VA
300 AM EDT THU OCT 23 2014

Note: "fair" indicates few or no clouds below 12,000 feet with no
significant weather and/or obstructions to visibility. * = Denotes
station may not report precipitation (e.g., rain,snow,etc.),
thunder or fog.

VAZ042-051-052>054-056-230800-
NORTHERN VIRGINIA

CITY           SKY/WX    TMP DP  RH WIND       PRES   REMARKS
WASH NATIONAL  CLOUDY    54  41  61 NW20G26   29.89F
DULLES         MOCLDY    50  41  71 NW21      29.92F
FORT BELVOIR   CLOUDY    52  42  69 NW21      29.90F
QUANTICO       MOCLDY    52  41  66 NW14G23   29.92F
FREDERICKSBRG* CLEAR     52  43  71 NW9       29.92F
STAFFORD*      CLEAR     49  40  71 NW9       29.96F
WARRENTON      CLEAR     52  46  82 NW15      29.93F
CULPEPER*      CLEAR     54  43  66 NW7       29.94F
MANASSAS*      PTCLDY    52  43  71 NW13G21   29.93F
LEESBURG*      CLOUDY    50  45  81 NW23      29.94F
WINCHESTER     MOCLDY    50  37  62 NW10      29.98S
FRONT ROYAL*   MOSUNNY   50  41  71 NW9G20    29.97F
LURAY*         CLOUDY    52  43  71 SW5       30.00F
$$

VAZ048-049-060>072-079>083-230800-
CENTRAL AND SOUTH CENTRAL VIRGINIA...AND NORTH CENTRAL NORTH CAROLINA

CITY           SKY/WX    TMP DP  RH WIND       PRES   REMARKS
RICHMOND       CLEAR     51  42  71 W8        29.93S
CHESTERFIELD*  MOSUNNY  N/A N/A N/A NW6       29.94F
PETERSBURG*    PTCLDY    49  42  76 W7        29.95S
HANOVER        CLEAR     47  43  86 W6        29.94F
TAPPAHANNOCK*  PTCLDY    52  40  63 W6G17     29.90F
CHARLOTTSVILLE CLEAR     52  39  61 NW9G21    29.96F
ORANGE*        CLEAR     52  41  66 W9        29.95F
LOUISA*        CLEAR     45  43  93 W3        29.93F
FARMVILLE*     CLEAR     46  39  76 SW3       29.96S
CREWE*         SUNNY     49  41  72 NW7       29.96F
FORT PICKETT*  SUNNY     46  42  86 NW8       29.95F
LUNENBURG*     SUNNY     47  42  84 NW3       29.96F
SOUTH HILL*    CLEAR     46  45  93 W3        30.02F
LAWRENCEVILLE* SUNNY     44  42  95 CALM      29.95F
ROANOKE RAPIDS SUNNY     46  43  87 W6        29.97F
RALEIGH        CLEAR     44  39  82 SW5       30.02S
$$

VAZ088>098-230800-
SOUTHEAST VIRGINIA

CITY           SKY/WX    TMP DP  RH WIND       PRES   REMARKS
NORFOLK        CLOUDY    54  43  66 NW8G17    29.87F
VIRGINIA BEACH CLOUDY    57  45  64 NW18      29.85F
NORFOLK NAVAL  CLOUDY    56  44  64 NW14      29.89F
WEST POINT*    CLEAR     54  42  63 NW8G17    29.91S
NEWPORT NEWS   CLOUDY    56  43  61 NW12G23   29.88F
LANGLEY AFB    CLOUDY    54  44  70 W16       29.87F
FORT EUSTIS    CLOUDY    54  41  61 NW20      29.87F
WILLIAMSBURG*  CLEAR     54  45  71 NW13      29.90F
HR EXEC AP*    CLOUDY    52  43  71 W6        29.92S
FRANKLIN*      CLOUDY    52  45  76 NW8       29.92F
WAKEFIELD      CLOUDY    53  43  68 VRB6      29.92S
$$

VAZ020-022-025-037-045-230800-
WEST CENTRAL AND SOUTHWEST VIRGINIA

CITY           SKY/WX    TMP DP  RH WIND       PRES   REMARKS
STAUNTON*      MOCLDY    49  38  67 NW6       30.03F
HOT SPRINGS VA CLOUDY    38  37  94 NW21G26   30.02S
LYNCHBURG      CLEAR     50  39  66 VRB7      30.01F
DANVILLE       CLEAR     50  40  68 W7        30.02F
SOUTH BOSTON*  NOT AVBL
MARTINSVILLE   CLEAR     47  40  76 NW8       30.06S
ROANOKE        PTCLDY    49  38  65 NW12G21   30.09R
BLACKSBURG     CLOUDY    45  41  87 W6        30.11S
DUBLIN*        CLOUDY    46  39  76 NW9       30.12S
MARION*        CLOUDY    45  38  77 NW9G17    30.15S
HILLSVILLE*    CLOUDY    43  37  81 NW12      30.09S
RICHLANDS*     CLOUDY    44  42  90 NW5       30.16S
WISE*          CLOUDY    43  41  93 N6        30.18S
ABINGDON*      CLOUDY    47  41  81 N3        30.17S
$$

MDZ021>025-VAZ099-100-230800-
SOUTHERN MARYLAND AND THE DELMARVA PENINSULA

CITY           SKY/WX    TMP DP  RH WIND       PRES   REMARKS
PATUXENT RIVER CLOUDY    53  44  71 NW24G31   29.84F
BAY BRIDGE APT   N/A     54  45  71 NW14G22   29.83F
LEONARDTOWN    CLOUDY    52  43  71 W8        29.86F
DOVER          CLOUDY    51  48  90 NW16G25   29.74F
GEORGETOWN     LGT RAIN  52  47  83 NW10G17   29.77F
EASTON         CLOUDY    55  48  79 N18G25    29.85F
CAMBRIDGE      CLOUDY    55  45  67 NW16G25   29.81F VSB<1/4
SALISBURY      CLOUDY    56  45  66 NW15G32   29.78F
OCEAN CITY     CLOUDY    51  47  86 NW14G21   29.75F
WALLOPS ISLAND CLOUDY    55  47  74 NW15G24   29.79F
ACCOMACK*      CLOUDY    55  45  67 NW12G32   29.81F
$$

NCZ012>017-030>032-230800-
EASTERN NORTH CAROLINA

CITY           SKY/WX    TMP DP  RH WIND       PRES   REMARKS
ELIZABETH CITY CLOUDY    55  45  68 W15       29.90S
AHOSKIE*       MOCLDY    48  44  84 CALM      29.96S
EDENTON*       CLOUDY    54  45  73 NW9       29.93S
CURRITUCK*     CLOUDY    54  44  68 W9        29.89S
KILL DEVIL HLS CLOUDY    56  47  72 W12G24    29.87S
MANTEO         CLOUDY    55  47  72 NW12G20   29.89S
CAPE HATTERAS  MOCLDY    56  48  74 NW14G24   29.89F
TARBORO*       SUNNY     48  45  88 W6        29.98F
GOLDSBORO      CLEAR     49  48  96 W6        29.99S
WASHINGTON     CLEAR     51  44  77 NW5       29.97F
GREENVILLE     CLEAR     52  46  82 NW3       29.99F
NEW BERN       CLEAR     54  46  74 NW7       29.98F
WILMINGTON     CLEAR     50  43  77 NW8       30.01S
$$

VAZ048-230800-
ELSEWHERE

CITY           SKY/WX    TMP DP  RH WIND       PRES   REMARKS
HARRISBURG PA  CLOUDY    53  43  68 NW16G26   29.87S
BALTIMORE      CLOUDY    52  42  69 NW14G22   29.85F
ANNAPOLIS      CLOUDY    54  44  69 NW13      29.84F
ANDREWS AFB    CLOUDY    52  42  71 NW15G22   29.87F
WILMINGTON DE  CLOUDY    52  46  80 NW17G29   29.78F
PHILADELPHIA   CLOUDY    52  46  80 NW21G30   29.76S
WILDWOOD NJ*   CLOUDY    54  45  71 NW13G25   29.73S
ATLANTIC CITY  LGT RAIN  50  49  96 NW16G26   29.69S
HENDERSON NC   CLEAR     48  39  71 W3        30.00S
GREENSBORO     CLEAR     44  39  82 W5        30.04S
ROCKY MOUNT    CLEAR     49  43  80 W5        29.99F
FAYETTEVILLE   CLEAR     50  41  71 NW8       30.03S
CHARLOTTE      CLEAR     44  37  76 NW5       30.08F
$$

VAZ100-230800-
MARINE

STATION/POSITION TIME  TEMP    WIND        PRES    WAVE   SWELL
                       AIR SEA DIR/SP/G            HT/PER HT/PER
                 (UTC) (F)     (DEG/KT/KT) (MB)    (FT/S) (FT/S)
44066 TX TWR #4  0700   62 67   20/ 27/ 35  998.0F
CAPE MAY NJ      0700   54 63  320/ 15/ 28 1005.9F
LEWES DE         0700   54 61  320/ 29/ 33 1006.8S
15NM E FENWICK I 0700   57 65  310/ 29/ 35 1005.0F  10/ 8   3/ 9
OCEAN-CITY-INLET 0700   52 63  330/ 16/ 20 1006.9F
WACHAPREAGUE VA  0700   55 60  300/  4/ 13 1009.5F
THOMAS POINT MD  0700   54 62  320/ 18/ 21 1011.1F
GOOSES REEF MD   0700   55     330/ 21/ 27 1010.5F
COVE POINT MD    0700   54     340/ 23/ 31 1009.9F
SOLOMONS ISLAND  0700      64                N/A
BISHOPS HEAD MD  0700   54 56  320/ 15/ 24 1009.3F
PINEY POINT MD   0700          330/ 27/ 32   N/A
POTOMAC MD       0700   56     330/ 23/ 29 1009.9F
CAMBRIDGE MD     0700   55 61  320/ 18/ 22 1009.2F
LEWISETTA VA     0700   55 60  320/ 18/ 26 1010.8F
RAPPAHANNOCK LGT 0700          310/ 29/ 32 1010.5F
STINGRAY PT      0700   56     320/ 21/ 25 1011.5S
YORK RVR RNG VA  0700   54     320/ 21/ 25 1010.8S
YORKTOWN VA      0700   56 65  320/ 26/ 30 1011.2F
JAMESTOWN VA     0700   56     340/ 19/ 23   N/A
DOMINION TERM VA 0700   56     330/ 19/ 25 1011.7F
KIPTOPEKE VA     0700      64  330/ 28/ 32   N/A
CHES BAY BRIDGE  0700   56 66  300/ 25/ 29 1010.7F
CHESAPEAKE LGHT  0600   58     320/ 27/ 32 1011.0R
WILLOUBY STN VA  0700   54     310/ 17/ 19 1010.3F
S CRANEY ISL VA  0700          290/ 14/ 22 1011.4F
CAPE HENRY BUOY  0700      68                N/A     7/ 5   2/11
1ST LANDING BUOY 0700   58     320/ 23/ 29 1010.6F
CAPE CHARLES BUO 0700      67                N/A     6/ 9   3/ 9
64NM E OF VA BCH 0700   61 70  320/ 25/ 31 1007.7F  10/ 9   7/ 9
DUCK PIER NC     0700   55 67  290/ 19/ 24 1010.7S
44100 DUCK FRF   0700      68                N/A     9/ 9   2/11
44056 DUCK FRF   0700                        N/A     6/ 9   2/11
OREGON INLET NC  0700   56 63  290/ 16/ 22 1011.5R
HATTERAS NC      0700   58 65  320/ 22/ 26 1012.7F
DIAMOND SHLS NC  0700   59     310/ 21/ 27 1011.8F   6/ 5   2/11
CAPE LOOKOUT NC  0600   58     320/ 14/ 18 1014.5F
$$



USA.gov is the U.S. government's official web portal to all federal, state and local government web resources and services.